Location: Bosdarros
(43.2167°N, 0.3667°W)
Time: 14:48:32
(UTC+00:00)

USA 281 - Pass Details

Date: 22 April 2021
Orbit: 1078 x 1081 km, 106.0° (Epoch: 07 May)

Event Time Altitude Azimuth Distance (km) Brightness Sun altitude
Exits shadow 23:43:10 39° 68° (ENE) 1,561 4.1 -34.1°
Maximum altitude 23:43:47 40° 55° (NE) 1,541 4.1 -34.1°
Drops below altitude 10° 23:49:48 10° 349° (N) 2,928 6.3 -34.2°
Sets 23:52:28 0° 342° (NNW) 3,888 7.1 -34.2°
